"Time","Temp","Dewpoint","Humidity","Pressure","Direction","Speed","Gust","Precip","PrecipRate"
"00:04:59","54","52.3","94","29.92","146","0","0","0.00","0.00"
"00:09:59","54.1","52.4","94","29.92","146","0","0","0.00","0.00"
"00:14:58","54.2","52.5","94","29.92","146","0","0","0.00","0.00"
"00:19:59","54.3","52.7","94.3","29.92","146","0","0","0.00","0.00"
"00:24:57","54.5","53.1","95","29.92","146","0","0","0.00","0.00"
"00:29:58","54.7","53","94.1","29.92","146","0","0","0.00","0.00"
"00:34:56","54.9","53.2","94","29.91","146","0","0","0.00","0.00"
"00:39:59","55.1","53.4","94","29.91","146","0","0","0.00","0.00"
"00:44:56","55.3","53.6","94","29.91","146","0","0","0.00","0.00"
"00:49:57","55.4","53.7","93.8","29.90","146","0","0","0.00","0.00"
"00:54:59","55.5","53.5","93","29.90","146","0","0","0.00","0.00"
"00:59:56","55.5","53.5","93","29.90","146","0","0","0.00","0.00"
"01:04:57","55.4","53.4","93","29.90","146","0","0","0.00","0.00"
"01:09:56","55.4","53.4","93","29.90","146","0","0","0.00","0.00"
"01:14:56","55.3","53.3","93","29.90","146","0","0","0.00","0.00"
"01:19:57","55.2","53.2","93","29.89","146","0","0","0.00","0.00"
"01:24:59","55.1","53.1","93","29.89","146","0","0","0.00","0.00"
"01:29:56","55","53","93","29.89","146","0","0","0.00","0.00"
"01:34:58","55","53","93","29.88","146","0","0","0.00","0.00"
"01:39:57","54.8","52.8","93","29.88","146","0","0","0.00","0.00"
"01:44:59","54.7","52.7","93","29.88","146","0","0","0.00","0.00"
"01:49:56","54.6","52.6","93","29.88","146","0","0","0.00","0.00"
"01:54:58","54.5","52.5","93","29.88","146","0","0","0.00","0.00"
"01:59:56","54.4","52.4","93","29.88","146","0","0","0.00","0.00"
"02:04:58","54.2","52.2","93","29.88","146","0","0","0.00","0.00"
"02:09:57","54.1","52.1","93.1","29.88","146","0","0","0.00","0.00"
"02:14:56","54","52.3","94","29.88","146","0","0","0.00","0.00"
"02:19:58","54","52.3","94","29.88","146","0","0","0.00","0.00"
"02:24:59","54","52.3","94","29.88","146","0","0","0.00","0.00"
"02:29:57","54.2","52.8","95","29.88","146","1.3","2.4","0.00","0.00"
"02:34:58","54.4","53","95","29.87","146","0.7","2.4","0.00","0.00"
"02:39:57","54.5","53.1","95","29.87","146","0","0","0.00","0.00"
"02:44:58","54.6","53.2","95","29.87","146","0","0","0.00","0.00"
"02:49:59","54.6","53.2","95","29.87","146","0","0","0.00","0.00"
"02:54:57","54.7","53.3","95","29.87","146","0.1","1.2","0.00","0.00"
"02:59:58","54.8","53.4","95","29.87","146","0","0","0.00","0.00"
"03:04:57","54.8","53.2","94.3","29.87","146","0","0","0.00","0.00"
"03:09:57","54.7","53","94","29.87","146","0","0","0.00","0.00"
"03:14:57","54.7","53","94","29.87","146","0","0","0.00","0.00"
"03:19:58","54.7","53","94","29.87","146","0","0","0.00","0.00"
"03:24:56","54.7","53","94","29.87","146","0","0","0.00","0.00"
"03:29:58","54.6","52.9","94","29.87","146","0","0","0.00","0.00"
"03:34:59","54.6","52.9","94.2","29.86","146","0","0","0.00","0.00"
"03:39:58","54.6","53.2","95","29.86","146","0","0","0.00","0.00"
"03:44:56","54.7","53.3","95","29.86","146","0","0","0.00","0.00"
"03:49:57","54.7","53.3","95","29.85","146","0","0","0.00","0.00"
"03:54:58","54.7","53.3","95","29.85","146","0","0","0.00","0.00"
"03:59:59","54.7","53.3","95","29.86","146","0","0","0.00","0.00"
"04:04:57","54.8","53.4","95","29.86","146","0","0","0.00","0.00"
"04:09:57","54.8","53.4","95","29.86","146","0","0","0.00","0.00"
"04:14:56","54.9","53.5","95","29.86","146","0","0","0.00","0.00"
"04:19:58","54.9","53.5","95","29.85","146","0","0","0.00","0.00"
"04:24:56","54.8","53.4","95","29.85","146","0","0","0.00","0.00"
"04:29:57","54.7","53.3","94.8","29.85","146","0.1","1.2","0.00","0.00"
"04:34:58","54.7","53.3","95","29.85","146","0.3","1.2","0.00","0.00"
"04:39:58","54.7","53.3","95","29.85","146","0","0","0.00","0.00"
"04:44:55","54.7","53","94","29.85","146","0","0","0.00","0.00"
"04:49:57","54.6","52.9","94","29.84","146","0","0","0.00","0.00"
"04:54:59","54.5","52.8","94","29.84","146","0","0","0.00","0.00"
"04:59:56","54.5","52.9","94.4","29.84","146","0","0","0.00","0.00"
"05:04:58","54.4","53","95","29.84","146","0","0","0.00","0.00"
"05:09:58","54.4","53","95","29.84","146","0","0","0.00","0.00"
"05:14:57","54.3","52.9","95","29.84","146","0","0","0.00","0.00"
"05:19:58","54.3","52.9","95","29.84","146","0","0","0.00","0.00"
"05:24:59","54.3","52.9","95","29.84","146","0","0","0.00","0.00"
"05:29:56","54.2","52.8","95","29.84","146","0","0","0.00","0.00"
"05:34:57","54.2","52.8","95","29.83","146","0","0","0.00","0.00"
"05:39:57","54.2","52.8","95","29.83","146","0","0","0.00","0.00"
"05:44:58","54.1","52.7","95","29.83","146","0","0","0.00","0.00"
"05:49:59","54.1","52.7","95","29.83","146","0","0","0.00","0.00"
"05:54:57","54.1","52.7","95","29.83","146","0","0","0.00","0.00"
"05:59:58","54.1","52.7","95","29.83","146","0","0","0.00","0.00"
"06:04:56","54","52.6","95","29.83","146","0","0","0.00","0.00"
"06:09:57","54","52.6","95","29.83","146","0","0","0.00","0.00"
"06:14:56","53.9","52.6","95.1","29.83","146","0","0","0.00","0.00"
"06:19:57","53.9","52.6","95.2","29.83","146","0","0","0.00","0.00"
"06:24:59","53.9","52.5","95","29.83","146","0","0","0.00","0.00"
"06:29:56","53.8","52.4","95","29.83","146","0","0","0.00","0.00"
"06:34:57","53.7","52.3","95","29.83","146","0","0","0.00","0.00"
"06:39:56","53.6","52.2","95","29.83","146","0","0","0.00","0.00"
"06:44:58","53.6","52.2","95","29.83","146","0","0","0.00","0.00"
"06:49:59","53.5","52.1","95","29.82","146","0","0","0.00","0.00"
"06:54:56","53.4","52","95","29.82","146","0","0","0.00","0.00"
"06:59:57","53.3","51.9","95","29.82","146","0","0","0.00","0.00"
"07:04:59","53.2","51.8","95","29.82","146","0","0","0.00","0.00"
"07:09:58","53.1","51.7","95","29.82","146","0","0","0.00","0.00"
"07:14:58","53.2","52.1","96","29.82","146","0","0","0.00","0.00"
"07:19:59","53.4","52.3","96","29.81","146","0","0","0.00","0.00"
"07:24:57","53.6","52.5","96","29.81","146","0","0","0.00","0.00"
"07:29:58","53.6","52.5","96","29.82","146","0","0","0.00","0.00"
"07:34:56","53.7","52.6","96","29.82","146","0","0","0.00","0.00"
"07:39:58","53.7","52.6","96","29.82","146","0","0","0.00","0.00"
"07:44:59","53.8","52.7","96","29.82","146","0","0","0.00","0.00"
"07:49:57","53.9","52.8","96","29.82","146","0","0","0.00","0.00"
"07:54:58","54","52.9","96","29.82","146","0","0","0.00","0.00"
"07:59:59","54.1","53","96","29.82","146","0","0","0.00","0.00"
"08:04:57","54.3","53.2","96","29.81","146","0","0","0.00","0.00"
"08:09:57","54.4","53.3","96","29.81","146","0","0","0.00","0.00"
"08:14:59","54.5","53.4","96","29.81","146","0","0","0.00","0.00"
"08:19:56","54.7","53.6","96","29.80","146","0","0","0.00","0.00"
"08:24:57","54.8","53.7","96","29.80","146","0","0","0.00","0.00"
"08:29:58","55","53.9","96","29.80","146","0.5","2.4","0.00","0.00"
"08:34:58","55.3","54.2","96","29.80","146","0.4","2.4","0.00","0.00"
"08:39:57","55.5","54.4","96","29.80","146","0.5","2.4","0.00","0.00"
"08:44:57","55.7","54.4","95.3","29.80","146","0.7","2.4","0.00","0.00"
"08:49:58","55.9","54.5","95","29.80","146","1.6","3.6","0.00","0.00"
"08:54:58","56.1","54.4","94.2","29.80","146","1.1","3.6","0.00","0.00"
"08:59:59","56.3","54.6","94","29.80","146","0.3","2.4","0.00","0.00"
"09:04:56","56.4","54.7","94","29.80","146","0.3","2.4","0.00","0.00"
"09:09:59","56.6","54.9","94","29.80","146","0.2","2.3","0.00","0.00"
"09:14:59","56.7","55","94","29.80","146","0","0","0.00","0.00"
"09:19:59","56.9","55","93.3","29.79","146","0.5","2.4","0.00","0.00"
"09:24:56","57.1","55.1","93.1","29.79","146","0.1","1.2","0.00","0.00"
"09:29:56","57.3","55.4","93.6","29.79","146","0.4","2.4","0.00","0.00"
"09:34:57","57.5","55.5","93.1","29.79","146","0","1.2","0.00","0.00"
"09:39:56","57.7","55.7","93","29.79","146","1.6","4.8","0.00","0.00"
"09:44:57","58.1","56.1","93","29.79","172","1.6","4.8","0.00","0.00"
"09:49:57","58.4","56.1","92","29.78","193","2.3","8.4","0.00","0.00"
"09:54:58","58.7","56.4","91.8","29.78","192","1.8","6","0.00","0.00"
"09:59:58","59.1","56.6","91.4","29.78","195","2","6","0.00","0.00"
"10:04:59","59.4","56.7","90.9","29.78","190","2.6","8.4","0.00","0.00"
"10:09:57","59.7","56.8","90.2","29.78","187","2","4.8","0.00","0.00"
"10:14:58","60","56.7","89.1","29.78","138","2.2","4.8","0.00","0.00"
"10:19:56","60.4","57","88.8","29.78","173","1.9","6","0.00","0.00"
"10:24:56","60.7","57.4","88.8","29.78","177","1.8","4.8","0.00","0.00"
"10:29:57","61","57.2","87.4","29.78","166","2.2","7.2","0.00","0.00"
"10:34:57","61.3","57.4","87","29.77","184","3.1","12","0.00","0.00"
"10:39:56","61.6","57.4","86.1","29.77","184","3.2","11.5","0.00","0.00"
"10:44:56","61.9","57.5","85.6","29.77","164","3.4","8.4","0.00","0.00"
"10:49:57","62.1","57.5","85","29.77","199","2.5","8.1","0.00","0.00"
"10:54:57","62.3","57.7","84.9","29.77","174","2.6","7.2","0.00","0.00"
"10:59:57","62.4","57.4","83.7","29.77","176","4.2","10.8","0.00","0.00"
"11:04:54","62.5","57.6","84.1","29.76","171","2.9","6","0.00","0.00"
"11:09:58","62.6","57.7","84","29.76","208","3.6","7.2","0.00","0.00"
"11:14:56","62.6","57.5","83.3","29.76","188","3.1","6.9","0.00","0.00"
"11:19:56","62.7","57.6","83.4","29.75","178","3.4","7.2","0.00","0.00"
"11:24:57","62.9","57.8","83.5","29.75","189","3","6","0.00","0.00"
"11:29:57","63.1","58","83.5","29.75","194","2.2","7.2","0.00","0.00"
"11:34:57","63.3","58.1","83.3","29.75","193","2.2","6","0.00","0.00"
"11:39:59","63.4","58","82.7","29.75","157","2","6","0.00","0.00"
"11:44:56","63.6","58.2","82.6","29.75","169","2.1","4.8","0.00","0.00"
"11:49:57","63.7","58.1","82.1","29.74","165","2.1","4.8","0.00","0.00"
"11:54:57","63.9","58.5","82.5","29.74","160","1.9","4.8","0.00","0.00"
"11:59:57","64.2","58.6","82.1","29.74","187","2.1","7.2","0.00","0.00"
"12:04:59","64.6","58.8","81.6","29.73","190","3.2","12","0.00","0.00"
"12:09:58","64.9","58.8","80.8","29.73","197","4.6","10.8","0.00","0.00"
"12:14:57","65","58.7","80","29.73","183","5","10.4","0.00","0.00"
"12:19:57","65.3","58.9","79.9","29.73","199","4.4","9.2","0.00","0.00"
"12:24:57","65.5","59.2","80","29.73","191","4","8.4","0.00","0.00"
"12:29:58","65.7","59.3","79.6","29.73","183","4.9","13.2","0.00","0.00"
"12:34:59","65.9","59.5","79.6","29.72","181","3.1","6","0.00","0.00"
"12:39:58","66.2","59.6","79.3","29.72","186","3.8","8.4","0.00","0.00"
"12:44:59","66.6","60.3","80.3","29.72","205","3.5","8.4","0.00","0.00"
"12:49:59","67.5","61.4","80.7","29.72","181","4.7","13.2","0.00","0.00"
"12:54:56","68.3","61","77.5","29.72","200","5.3","12.7","0.00","0.00"
"12:59:57","68.7","60.9","76.1","29.72","167","4.4","10.8","0.00","0.00"
"13:04:57","69","61.1","76.1","29.70","183","5.2","12","0.00","0.00"
"13:09:56","69.3","61.4","75.8","29.70","203","5","19.6","0.00","0.00"
"13:14:59","69.7","61.8","75.8","29.70","187","3.2","7.2","0.00","0.00"
"13:19:59","70.2","61.9","75","29.70","193","4.5","14.4","0.00","0.00"
"13:24:56","70.9","62.4","74.6","29.70","198","5.8","15","0.00","0.00"
"13:29:57","71.6","62.5","73.1","29.70","212","3.4","8.4","0.00","0.00"
"13:34:57","71.8","62.6","72.8","29.69","198","3.9","12","0.00","0.00"
"13:39:56","71.9","62.5","72.3","29.69","182","4.5","11.5","0.00","0.00"
"13:44:57","72","62.6","72.3","29.69","185","3.8","7.2","0.00","0.00"
"13:49:57","72.1","62.4","71.7","29.68","192","3.9","8.4","0.00","0.00"
"13:54:58","72.2","62.6","71.8","29.68","195","3.8","8.4","0.00","0.00"
"13:59:58","72.2","62.8","72.2","29.69","209","3.7","7.2","0.00","0.00"
"14:04:59","72.2","63","72.8","29.69","200","2.6","5.8","0.00","0.00"
"14:09:59","72.3","63.2","73.2","29.69","184","2.1","6","0.00","0.00"
"14:14:57","72.3","63.1","72.8","29.69","204","2.9","7.2","0.00","0.00"
"14:19:58","72.2","63.1","73.2","29.69","211","2.4","7.2","0.00","0.00"
"14:24:59","72","62.9","73","29.69","223","2","6.9","0.00","0.00"
"14:29:59","71.9","63.1","73.7","29.69","224","0.6","3.5","0.00","0.00"
"14:34:56","71.9","63.9","75.8","29.68","224","0.9","2.4","0.00","0.00"
"14:39:59","72.1","64.9","78.2","29.68","223","1.5","3.6","0.00","0.00"
"14:44:59","72.7","66.3","80.3","29.69","225","1.8","3.6","0.01","0.01"
"14:49:56","73.3","65.6","76.8","29.69","304","4","13.2","0.01","0.01"
"14:54:57","73.2","65.3","76.4","29.69","330","4.2","12.7","0.01","0.01"
"14:59:57","72.7","65","76.8","29.69","342","2.2","8.1","0.01","0.01"
"15:04:59","72.8","65.6","78.3","29.69","342","0.8","3.6","0.01","0.01"
"15:09:58","73.1","65.2","76.2","29.69","342","0.3","2.4","0.01","0.01"
"15:14:57","73.1","65","75.8","29.69","342","0","0","0.01","0.01"
"15:19:58","73.1","65.6","77.3","29.67","342","0","0","0.01","0.01"
"15:24:59","72.9","65.5","77.6","29.67","342","0.2","3.6","0.01","0.01"
"15:29:59","72.7","65.5","78.2","29.67","342","0","1.2","0.01","0.01"
"15:34:56","72.5","65.3","78.1","29.67","342","0.6","3.6","0.01","0.01"
"15:39:59","72.3","65.2","78.3","29.67","342","0.4","2.4","0.01","0.01"
"15:44:56","72.1","65.1","78.5","29.67","342","0.2","1.2","0.01","0.01"
"15:49:58","72","64.7","77.8","29.67","342","0.1","1.2","0.01","0.00"
"15:54:59","71.8","64.7","78.2","29.67","342","0.4","1.2","0.01","0.00"
"15:59:59","71.7","65.2","80.1","29.67","342","0.6","2.4","0.01","0.00"
"16:04:57","71.5","64.8","79.5","29.66","342","0.8","3.6","0.01","0.00"
"16:09:55","71.2","64.8","80.3","29.66","342","1.1","3.6","0.01","0.00"
"16:14:58","71","64.5","79.9","29.66","342","1.5","3.6","0.01","0.00"
"16:19:59","71","65","81.3","29.66","342","0.4","2.4","0.01","0.00"
"16:24:56","71","64.7","80.5","29.66","342","0.8","4.8","0.01","0.00"
"16:29:57","71.2","64.9","80.6","29.66","344","0.5","3.5","0.01","0.00"
"16:34:58","71.4","65","80.3","29.65","344","0.8","2.4","0.01","0.00"
"16:39:56","71.5","65","79.9","29.65","344","1","3.6","0.01","0.00"
"16:44:57","71.6","65.1","80","29.65","344","1.2","3.6","0.01","0.00"
"16:49:58","71.7","65.3","80.2","29.64","344","0.6","2.4","0.01","0.00"
"16:54:59","71.7","65.3","80.3","29.64","344","1.1","2.4","0.01","0.00"
"16:59:56","71.8","65.6","80.7","29.64","344","0.8","2.4","0.01","0.00"
"17:04:57","71.8","65.3","80","29.63","344","0.6","2.4","0.01","0.00"
"17:09:57","72","65.6","80.4","29.63","344","0.7","2.4","0.01","0.00"
"17:14:59","72.3","66.1","81","29.63","344","0.1","2.4","0.01","0.00"
"17:19:56","72.6","66.4","80.8","29.63","344","1.1","3.6","0.01","0.00"
"17:24:57","73.1","66.6","80.2","29.63","339","2.1","4.8","0.01","0.00"
"17:29:58","73.9","67.2","79.6","29.63","248","1.8","4.8","0.01","0.00"
"17:34:59","74.7","67.4","78","29.62","187","2.9","6","0.01","0.00"
"17:39:57","75.3","66.2","73.6","29.62","192","5.3","15","0.01","0.00"
"17:44:58","75.5","64.8","69.5","29.62","198","5.5","12","0.01","0.00"
"17:49:59","75.5","64.4","68.5","29.62","183","5.1","10.8","0.01","0.00"
"17:54:59","75.5","64.2","68","29.62","186","4.3","13.2","0.01","0.00"
"17:59:55","75.4","63.6","66.8","29.62","186","5.1","13.2","0.01","0.00"
"18:04:56","74.8","62.9","66.5","29.62","196","6.8","15","0.01","0.00"
"18:09:59","74.1","62.5","67.2","29.62","194","5.7","15","0.01","0.00"
"18:14:58","73.3","61.9","67.5","29.62","205","7.3","18","0.01","0.00"
"18:19:58","72.7","61.5","68","29.62","202","5.1","18.4","0.01","0.00"
"18:24:59","72.3","61.4","68.7","29.62","191","6","13.2","0.01","0.00"
"18:29:56","71.9","61.2","69","29.62","202","5","10.8","0.01","0.00"
"18:34:57","71.6","61.1","69.4","29.62","193","4.6","10.4","0.01","0.00"
"18:39:59","71.3","61","69.8","29.62","204","4.8","12","0.01","0.00"
"18:44:56","71.2","60.7","69.5","29.63","200","5.1","13.2","0.01","0.00"
"18:49:57","71.2","60.5","68.9","29.63","198","5.3","12.7","0.01","0.00"
"18:54:58","71.2","60.5","69","29.63","206","4.3","12","0.01","0.00"
"18:59:59","71.1","60.4","69","29.63","201","4.4","8.4","0.01","0.00"
"19:04:56","70.8","60.1","69","29.63","205","4.9","8.4","0.01","0.00"
"19:09:59","70.7","60","69.2","29.63","205","5.6","15","0.01","0.00"
"19:14:56","70.7","60","69","29.64","201","5.8","15","0.01","0.00"
"19:19:57","70.7","60","69","29.64","199","5.1","12","0.01","0.00"
"19:24:58","70.6","59.9","69","29.64","195","6.9","16.1","0.01","0.00"
"19:29:59","70.7","60","69","29.64","198","6.3","17.3","0.01","0.00"
"19:34:56","70.7","60","69","29.64","210","4.8","12","0.01","0.00"
"19:39:59","70.5","59.9","69.3","29.64","217","5.9","15","0.01","0.00"
"19:44:57","70.5","60.1","69.6","29.64","191","4.8","13.2","0.01","0.00"
"19:49:57","70.4","60.1","70","29.64","200","5.1","9.6","0.01","0.00"
"19:54:59","70.3","60.1","70","29.64","222","4","8.1","0.01","0.00"
"19:59:55","70.1","59.9","70","29.65","216","4.7","10.8","0.01","0.00"
"20:04:57","70.1","60.1","70.5","29.65","205","4.3","10.8","0.01","0.00"
"20:09:56","69.9","60.1","71","29.65","223","2.6","6","0.01","0.00"
"20:14:59","69.7","60","71.3","29.66","225","1.3","4.8","0.01","0.00"
"20:19:57","69.4","60","72","29.66","225","1.1","4.8","0.01","0.00"
"20:24:58","69.2","59.9","72.2","29.66","225","1","4.8","0.01","0.00"
"20:29:59","68.9","59.9","73","29.66","203","2.7","4.8","0.01","0.00"
"20:34:57","68.7","60","73.7","29.66","190","1.9","4.8","0.01","0.00"
"20:39:56","68.5","59.9","74","29.66","190","1.4","3.6","0.01","0.00"
"20:44:57","68.3","60","74.8","29.67","190","1.5","3.6","0.01","0.00"
"20:49:58","68.1","59.9","75","29.67","190","1.2","3.6","0.01","0.00"
"20:54:55","68","59.8","75","29.67","190","1.3","3.6","0.01","0.00"
"20:59:57","67.9","59.7","75","29.67","182","1.1","4.8","0.01","0.00"
"21:04:59","67.7","59.8","75.7","29.67","181","0.8","4.6","0.01","0.00"
"21:09:58","67.5","59.7","76","29.67","181","0.5","3.6","0.01","0.00"
"21:14:57","67.2","59.7","77","29.68","181","0.3","2.4","0.01","0.00"
"21:19:59","66.9","59.5","77","29.68","181","0.2","2.3","0.01","0.00"
"21:24:56","66.6","59.5","78","29.68","181","0","0","0.01","0.00"
"21:29:57","66.2","59.5","78.9","29.69","181","0.1","1.2","0.01","0.00"
"21:34:59","65.6","59.4","80.2","29.69","181","0.2","1.2","0.01","0.00"
"21:39:58","65","59.2","81.6","29.69","181","1.4","2.4","0.01","0.00"
"21:44:59","64.4","59.1","83.2","29.70","182","1.2","3.6","0.01","0.00"
"21:49:56","64.1","59.2","83.8","29.70","183","0.5","3.5","0.01","0.00"
"21:54:58","64","59.3","84.8","29.70","183","0","1.2","0.01","0.00"
"21:59:59","63.8","59.2","85","29.71","340","1.8","6","0.01","0.00"
"22:04:57","63.8","59.2","85","29.71","347","2.6","6","0.01","0.00"
"22:09:56","63.9","59.3","85","29.71","345","2.2","4.8","0.01","0.00"
"22:14:59","64","59.4","85","29.71","345","0.6","3.6","0.01","0.00"
"22:19:56","64","59.4","85","29.71","345","0.1","2.3","0.01","0.00"
"22:24:57","63.9","59.3","85","29.71","345","0","0","0.01","0.00"
"22:29:59","63.7","59.1","85","29.72","345","0","0","0.01","0.00"
"22:34:57","63.6","59.1","85.3","29.72","345","0","0","0.01","0.00"
"22:39:56","63.4","59.1","86","29.72","345","0","0","0.01","0.00"
"22:44:58","63.1","58.8","86","29.72","345","0","0","0.01","0.00"
"22:49:56","62.9","58.7","86.2","29.72","345","0","0","0.01","0.00"
"22:54:58","62.6","58.7","87","29.72","345","0","0","0.01","0.00"
"22:59:59","62.3","58.5","87.3","29.73","345","0","0","0.01","0.00"
"23:04:57","62.1","58.5","88","29.73","345","0","0","0.01","0.00"
"23:09:56","61.9","58.3","88","29.73","345","0","0","0.01","0.00"
"23:14:59","61.7","58.4","88.9","29.73","345","0","1.2","0.01","0.00"
"23:19:57","61.6","58.3","89","29.73","345","0.2","1.2","0.01","0.00"
"23:24:58","61.4","58.3","89.7","29.73","345","0","1.2","0.01","0.00"
"23:29:56","61.2","58.2","90","29.73","345","0.4","1.2","0.01","0.00"
"23:34:57","61","58","90","29.73","345","0","0","0.01","0.00"
"23:39:56","60.8","58.2","91","29.73","345","0.6","2.4","0.01","0.00"
"23:44:58","60.8","58.3","91.3","29.74","345","0.2","2.3","0.01","0.00"
